Overview Statistics Trail Chart Weather Telemetry Raw packets
 

This is the latest recevied weather packets stored in our database for station/object KN1OBI-13. If no packets are shown the sender has not sent any weather packets the latest 10 day(s).

<< 8 9 10 11 12 13 14 >>
Time Temp. Humidity Pressure Rain* Wind** Luminosity Snow
1788480392 21.67° C 89% 991.5 hPa 0 mm - - -
1788479792 21.67° C 89% 991.6 hPa 0 mm - - -
1788479192 22.22° C 88% 991.1 hPa 0 mm - - -
1788478592 22.22° C 88% 991 hPa 0 mm - - -
1788477992 22.78° C 87% 991.5 hPa 0 mm - - -
1788477392 22.78° C 86% 991.3 hPa 0 mm - - -
1788476792 23.33° C 85% 991.5 hPa 0 mm - - -
1788476192 23.89° C 84% 991.3 hPa 0 mm - - -
1788475592 23.89° C 83% 991.2 hPa 0 mm - - -
1788474992 24.44° C 82% 991 hPa 0 mm - - -
1788474392 25° C 82% 991.6 hPa 0 mm - - -
1788473792 25° C 81% 991.5 hPa 0 mm - - -
1788473192 25° C 81% 991.7 hPa 0 mm - - -
1788472592 25° C 81% 991.8 hPa 0 mm - - -
1788471992 25° C 82% 991.8 hPa 0 mm - - -
1788471392 24.44° C 82% 991.9 hPa 0 mm - - -
1788470792 25° C 81% 991.8 hPa 0 mm - - -
1788470214 25° C 80% 991.6 hPa 0 mm - - -
1788469592 25° C 80% 991.9 hPa 0 mm - - -
1788468992 25.56° C 80% 991.5 hPa 0 mm - - -
1788468392 25.56° C 79% 991.7 hPa 0 mm - - -
1788467792 25.56° C 79% 991.7 hPa 0 mm - - -
1788467192 25.56° C 77% 991.5 hPa 0 mm - - -
1788466592 26.11° C 77% 991.7 hPa 0 mm - - -
1788465992 26.11° C 76% 991.6 hPa 0 mm - - -

* Rain latest hour (hover to see other rain measurements)
** Current wind speed in m/s (hover to see current wind gust speed)